Weather History for KFAR - March, 2013

Change the Weather History Date:

Tuesday, March 12, 2013

  Actual Average Record
Temperature  
Mean Temperature 16 °F 26 °F  
Max Temperature 25 °F 34 °F 63 °F (2015)
Min Temperature 7 °F 18 °F -25 °F (1896)
Degree Days  
Heating Degree Days 49 39  
Month to date heating degree days 546 504  
Since 1 July heating degree days 7137 7182  
Cooling Degree Days 0 0  
Month to date cooling degree days 0 0  
Year to date cooling degree days 0 0  
Moisture  
Dew Point 13 °F    
Average Humidity 76    
Maximum Humidity 84    
Minimum Humidity 68    
Precipitation  
Precipitation 0.05 in 0.04 in 0.70 in (1977)
Month to date precipitation 0.64 0.47  
Year to date precipitation 2.83 1.78  
Snow  
Snow 0.60 in 0.30 in 5.10 in (1928)
Month to date snowfall 6.5 4.3  
Since 1 July snowfall 43.6 42.3  
Snow Depth 15.00 in    
Sea Level Pressure  
Sea Level Pressure 30.08 in    
Wind  
Wind Speed 14 mph (NNW)    
Max Wind Speed 25 mph    
Max Gust Speed 30 mph    
Visibility 6 miles    
Events Snow    
T = Trace of Precipitation, MM = Missing Value Source: NWS Daily Summary

Daily Weather History Graph

Daily Weather History Graph

Search for Another Location

Airport or City:

Trip Planner

Search our weather history database for the weather conditions in past years. The results will help you decide how hot, cold, wet, or windy it might be!

Date:

Astronomy

Mar. 12, 2013 Rise Set
Actual Time 7:45 AM CDT 7:29 PM CDT
Civil Twilight 7:15 AM CDT 7:59 PM CDT
Nautical Twilight 6:39 AM CDT 8:34 PM CDT
Astronomical Twilight 6:04 AM CDT 9:10 PM CDT
Moon 7:46 AM CDT (3/12) 8:53 PM CDT (3/12)
Length of Visible Light 12h 44m
Length of Day
11h 43m
New Moon, 1% of the Moon is Illuminated
Mar 12
New Moon
Mar 19
First Quarter
Mar 27
Full
Apr 2
Last Quarter
Apr 10
New

Hourly Weather History & Observations

Time (CDT) Temp. Windchill Dew Point Humidity Pressure Visibility Wind Dir Wind Speed Gust Speed Precip Events Conditions
12:01 AM 19.4 °F 14.3 °F 15.8 °F 86% 29.86 in 3.0 mi North 3.5 mph - 0.00 in Snow Light Snow
12:04 AM 19.4 °F - 15.8 °F 86% 29.87 in 2.5 mi Calm Calm - 0.00 in Snow Light Snow
12:17 AM 19.4 °F 12.8 °F 15.8 °F 86% 29.87 in 3.0 mi North 4.6 mph - 0.00 in Snow Light Snow
12:21 AM 19.4 °F 12.8 °F 15.8 °F 86% 29.87 in 2.5 mi North 4.6 mph - 0.00 in Snow Light Snow
12:31 AM 17.6 °F 10.7 °F 14.0 °F 86% 29.88 in 4.0 mi North 4.6 mph - 0.00 in Snow Light Snow
12:53 AM 18.0 °F 11.1 °F 14.0 °F 84% 29.94 in 4.0 mi NNW 4.6 mph - 0.00 in Snow Light Snow
1:34 AM 17.6 °F 8.2 °F 14.0 °F 86% 29.89 in 2.5 mi NNW 6.9 mph - 0.00 in Snow Light Snow
1:53 AM 18.0 °F 8.7 °F 14.0 °F 84% 29.94 in 2.5 mi NNW 6.9 mph - 0.01 in Snow Light Snow
2:00 AM 17.6 °F 8.2 °F 14.0 °F 86% 29.89 in 3.0 mi NNW 6.9 mph - N/A Snow Light Snow
2:08 AM 17.6 °F 10.7 °F 14.0 °F 86% 29.90 in 2.5 mi NW 4.6 mph - 0.00 in Snow Light Snow
2:32 AM 17.6 °F 8.2 °F 14.0 °F 86% 29.90 in 3.0 mi NNW 6.9 mph - 0.00 in Snow Light Snow
2:46 AM 17.6 °F 8.2 °F 14.0 °F 86% 29.91 in 2.0 mi NNW 6.9 mph - 0.00 in Snow Light Snow
2:53 AM 18.0 °F 8.7 °F 14.0 °F 84% 29.96 in 2.0 mi NNW 6.9 mph - 0.00 in Snow Light Snow
3:31 AM 17.6 °F 6.4 °F 14.0 °F 86% 29.92 in 1.8 mi NW 9.2 mph - 0.01 in Snow Light Snow
3:48 AM 17.6 °F 5.7 °F 14.0 °F 86% 29.93 in 2.0 mi NNW 10.4 mph - 0.01 in Snow Light Snow
3:53 AM 18.0 °F 6.9 °F 14.0 °F 84% 29.98 in 2.0 mi NNW 9.2 mph - 0.01 in Snow Light Snow
4:20 AM 17.6 °F 5.7 °F 14.0 °F 86% 29.94 in 3.0 mi NW 10.4 mph - 0.00 in Snow Light Snow
4:53 AM 17.1 °F 4.3 °F 12.9 °F 84% 30.00 in 7.0 mi NNW 11.5 mph - 0.01 in   Overcast
5:40 AM 17.6 °F 4.3 °F 12.2 °F 79% 29.96 in 2.5 mi NNW 12.7 mph - 0.00 in Snow Light Snow
5:53 AM 18.0 °F 4.8 °F 12.9 °F 81% 30.02 in 3.0 mi NNW 12.7 mph - 0.00 in Snow Light Snow
6:07 AM 17.6 °F 3.2 °F 12.2 °F 79% 29.98 in 2.0 mi NNW 15.0 mph - 0.00 in Snow Light Snow
6:26 AM 17.6 °F 3.2 °F 12.2 °F 79% 29.99 in 1.8 mi NNW 15.0 mph - 0.00 in Snow Light Snow
6:44 AM 17.6 °F 3.2 °F 12.2 °F 79% 30.00 in 2.0 mi NNW 15.0 mph - 0.00 in Snow Light Snow
6:53 AM 18.0 °F 4.2 °F 12.9 °F 81% 30.05 in 1.8 mi NNW 13.8 mph - 0.00 in Snow Light Snow
7:23 AM 17.6 °F 3.7 °F 14.0 °F 86% 30.01 in 2.0 mi NNW 13.8 mph - 0.01 in Snow Light Snow
7:35 AM 17.6 °F 4.3 °F 12.2 °F 79% 30.02 in 4.0 mi NNW 12.7 mph - 0.01 in Snow Light Snow
7:53 AM 18.0 °F 4.8 °F 12.9 °F 81% 30.08 in 10.0 mi NW 12.7 mph - 0.01 in   Overcast
8:53 AM 18.0 °F 3.1 °F 12.9 °F 81% 30.10 in 7.0 mi NW 16.1 mph - 0.00 in   Overcast
9:53 AM 18.0 °F 2.6 °F 12.0 °F 78% 30.13 in 10.0 mi NNW 17.3 mph - 0.00 in   Overcast
10:53 AM 17.1 °F 2.5 °F 10.9 °F 77% 30.15 in 10.0 mi NW 15.0 mph - N/A   Clear
11:53 AM 19.9 °F 3.5 °F 14.0 °F 78% 30.17 in 9.0 mi NW 21.9 mph - N/A   Scattered Clouds
12:53 PM 21.9 °F 6.2 °F 15.1 °F 75% 30.19 in 10.0 mi NW 21.9 mph - N/A   Clear
1:53 PM 24.1 °F 9.4 °F 16.0 °F 71% 30.20 in 10.0 mi NW 20.7 mph - N/A   Scattered Clouds
2:53 PM 24.1 °F 9.0 °F 16.0 °F 71% 30.21 in 10.0 mi NNW 21.9 mph 27.6 mph N/A   Clear
3:53 PM 25.0 °F 10.9 °F 16.0 °F 69% 30.22 in 10.0 mi NNW 19.6 mph - N/A   Clear
4:53 PM 24.1 °F 9.4 °F 16.0 °F 71% 30.25 in 10.0 mi NNW 20.7 mph - N/A   Partly Cloudy
5:24 PM 24.8 °F 11.1 °F 15.8 °F 69% 30.20 in 10.0 mi NNW 18.4 mph - N/A   Mostly Cloudy
5:31 PM 24.8 °F 11.5 °F 15.8 °F 69% 30.20 in 10.0 mi NNW 17.3 mph - N/A   Scattered Clouds
5:53 PM 21.9 °F 9.2 °F 15.1 °F 75% 30.26 in 10.0 mi NNW 13.8 mph - N/A   Clear
6:10 PM 21.2 °F 7.3 °F 15.8 °F 80% 30.22 in 10.0 mi NNW 16.1 mph - N/A   Mostly Cloudy
6:53 PM 21.9 °F 11.0 °F 15.1 °F 75% 30.29 in 10.0 mi NNW 10.4 mph - N/A   Overcast
7:53 PM 21.0 °F 7.6 °F 15.1 °F 78% 30.31 in 10.0 mi NNW 15.0 mph - N/A   Overcast
8:53 PM 18.0 °F 4.8 °F 10.9 °F 74% 30.33 in 10.0 mi NNW 12.7 mph - N/A   Overcast
9:10 PM 17.6 °F 5.0 °F 10.4 °F 73% 30.28 in 10.0 mi NNW 11.5 mph - N/A   Scattered Clouds
9:53 PM 14.0 °F 1.2 °F 8.1 °F 77% 30.35 in 10.0 mi NW 10.4 mph - N/A   Clear
10:53 PM 10.9 °F 0.2 °F 6.1 °F 81% 30.36 in 10.0 mi NW 6.9 mph - N/A   Clear
11:53 PM 9.0 °F -2.2 °F 3.9 °F 80% 30.37 in 10.0 mi NNW 6.9 mph - N/A   Clear